Total_Precipitation_Accumulation
0.21 0.15 0.14 0.18 0.19 0.17 0.08 0.05 0.04 0.02 0.02 0.01 0.01 0.01 0.02 0.02 0.04 0.09 0.09 0.07 0.07 0.12 0.20 0.41 0.59 0.66 0.67 0.70 0.67 0.67 0.56 0.50 0.52 0.61 0.68 0.68 0.67 0.64 0.68 0.71 0.77 0.81 0.83 0.85 0.81 0.78 0.72 0.58 0.52
0.18 0.20 0.22 0.30 0.22 0.14 0.07 0.05 0.06 0.04 0.03 0.02 0.01 0.01 0.01 0.02 0.03 0.06 0.10 0.10 0.07 0.11 0.20 0.33 0.52 0.65 0.71 0.71 0.67 0.64 0.59 0.57 0.57 0.62 0.69 0.72 0.69 0.65 0.68 0.72 0.76 0.83 0.82 0.87 0.84 0.76 0.72 0.59 0.51
0.23 0.28 0.32 0.33 0.23 0.15 0.11 0.07 0.08 0.07 0.04 0.02 0.02 0.03 0.02 0.03 0.04 0.06 0.08 0.08 0.10 0.15 0.22 0.36 0.56 0.69 0.77 0.77 0.73 0.69 0.64 0.64 0.66 0.68 0.73 0.76 0.78 0.74 0.71 0.66 0.69 0.79 0.83 0.85 0.87 0.76 0.71 0.63 0.55
0.34 0.43 0.42 0.34 0.20 0.13 0.09 0.08 0.10 0.08 0.06 0.04 0.03 0.03 0.02 0.04 0.05 0.06 0.07 0.09 0.11 0.16 0.22 0.39 0.59 0.74 0.78 0.79 0.80 0.71 0.70 0.71 0.71 0.74 0.81 0.83 0.82 0.79 0.76 0.69 0.66 0.66 0.73 0.78 0.80 0.74 0.74 0.68 0.59
0.43 0.51 0.46 0.32 0.17 0.09 0.06 0.06 0.08 0.08 0.08 0.06 0.04 0.03 0.05 0.06 0.07 0.08 0.10 0.11 0.14 0.20 0.26 0.41 0.63 0.78 0.84 0.86 0.86 0.82 0.79 0.80 0.78 0.78 0.85 0.93 0.89 0.86 0.80 0.72 0.66 0.59 0.60 0.65 0.71 0.68 0.68 0.68 0.62
0.59 0.54 0.39 0.27 0.16 0.07 0.05 0.06 0.07 0.08 0.10 0.09 0.06 0.05 0.08 0.11 0.12 0.14 0.16 0.18 0.20 0.24 0.33 0.48 0.75 0.85 0.92 0.98 0.98 0.93 0.94 0.96 0.93 0.92 0.91 0.96 0.97 0.89 0.82 0.75 0.71 0.65 0.63 0.65 0.67 0.66 0.67 0.68 0.64
0.59 0.49 0.29 0.22 0.17 0.09 0.06 0.07 0.08 0.09 0.12 0.11 0.09 0.08 0.11 0.16 0.19 0.20 0.23 0.25 0.27 0.33 0.42 0.53 0.71 0.88 1.04 1.11 1.10 1.05 1.03 1.05 1.02 1.00 0.99 1.00 1.02 1.02 0.96 0.89 0.80 0.74 0.71 0.69 0.64 0.59 0.58 0.58 0.60
0.58 0.56 0.31 0.20 0.18 0.12 0.08 0.08 0.09 0.12 0.14 0.13 0.12 0.09 0.11 0.19 0.22 0.26 0.31 0.35 0.40 0.46 0.53 0.62 0.75 0.88 1.01 1.09 1.14 1.09 1.05 1.07 1.09 1.10 1.08 1.08 1.07 1.08 1.07 0.96 0.84 0.78 0.74 0.68 0.62 0.57 0.52 0.47 0.44
0.69 0.71 0.38 0.20 0.18 0.14 0.12 0.12 0.11 0.14 0.17 0.19 0.16 0.11 0.12 0.21 0.26 0.33 0.41 0.49 0.55 0.62 0.66 0.71 0.86 0.95 1.02 1.05 1.06 1.14 1.17 1.18 1.15 1.12 1.07 1.06 1.04 1.00 0.94 0.87 0.84 0.82 0.81 0.75 0.69 0.65 0.56 0.46 0.37
0.80 0.65 0.34 0.18 0.16 0.16 0.17 0.17 0.16 0.19 0.22 0.25 0.23 0.17 0.17 0.27 0.34 0.37 0.40 0.44 0.54 0.63 0.71 0.78 0.90 0.95 1.04 1.04 1.14 1.27 1.23 1.21 1.17 1.07 1.06 1.01 0.98 0.98 0.89 0.89 0.90 0.86 0.84 0.83 0.80 0.74 0.63 0.50 0.37
0.67 0.48 0.26 0.18 0.16 0.16 0.20 0.19 0.16 0.21 0.22 0.27 0.25 0.20 0.24 0.33 0.42 0.43 0.42 0.42 0.49 0.62 0.75 0.83 0.94 1.03 1.11 1.11 1.14 1.23 1.22 1.22 1.21 1.18 1.12 1.11 1.09 1.08 1.04 0.98 0.99 0.93 0.85 0.84 0.83 0.78 0.65 0.57 0.50
0.50 0.33 0.24 0.21 0.19 0.19 0.21 0.18 0.16 0.20 0.20 0.22 0.26 0.23 0.27 0.36 0.42 0.45 0.49 0.50 0.57 0.73 0.83 0.92 1.06 1.18 1.24 1.26 1.21 1.16 1.20 1.21 1.17 1.18 1.16 1.14 1.12 1.08 1.05 1.00 0.93 0.91 0.89 0.88 0.86 0.83 0.72 0.63 0.53
0.40 0.29 0.24 0.24 0.24 0.23 0.23 0.18 0.17 0.19 0.18 0.22 0.31 0.29 0.28 0.37 0.46 0.53 0.64 0.67 0.69 0.79 0.91 1.03 1.18 1.26 1.32 1.36 1.36 1.26 1.19 1.17 1.14 1.12 1.13 1.11 1.08 1.03 0.97 0.93 0.89 0.86 0.84 0.81 0.76 0.73 0.66 0.58 0.55
0.34 0.28 0.27 0.28 0.31 0.27 0.26 0.21 0.16 0.17 0.17 0.26 0.35 0.33 0.32 0.42 0.49 0.55 0.68 0.78 0.78 0.84 0.97 1.12 1.27 1.34 1.40 1.38 1.33 1.28 1.24 1.19 1.18 1.11 1.05 1.04 1.05 1.03 0.99 0.94 0.91 0.84 0.81 0.81 0.78 0.73 0.68 0.58 0.51
0.39 0.42 0.40 0.34 0.31 0.32 0.33 0.28 0.16 0.13 0.16 0.28 0.36 0.36 0.36 0.43 0.52 0.55 0.61 0.71 0.80 0.91 1.09 1.28 1.42 1.49 1.53 1.50 1.42 1.33 1.31 1.28 1.20 1.15 1.13 1.08 1.04 1.02 1.03 1.01 0.93 0.83 0.77 0.78 0.79 0.81 0.80 0.72 0.62
0.58 0.67 0.60 0.39 0.28 0.29 0.47 0.40 0.15 0.12 0.17 0.28 0.41 0.41 0.35 0.41 0.50 0.59 0.62 0.72 0.85 1.02 1.18 1.34 1.56 1.62 1.60 1.61 1.58 1.51 1.41 1.35 1.30 1.21 1.21 1.18 1.13 1.10 1.10 1.08 1.01 0.92 0.86 0.82 0.77 0.76 0.77 0.76 0.71
0.86 0.78 0.53 0.35 0.28 0.30 0.43 0.37 0.17 0.15 0.19 0.25 0.38 0.45 0.41 0.42 0.53 0.66 0.70 0.73 0.88 1.01 1.13 1.32 1.55 1.66 1.63 1.68 1.66 1.67 1.60 1.48 1.41 1.33 1.26 1.22 1.18 1.14 1.15 1.12 1.07 1.01 0.98 0.92 0.85 0.78 0.71 0.68 0.65
0.70 0.55 0.43 0.34 0.31 0.35 0.34 0.25 0.16 0.18 0.20 0.23 0.32 0.42 0.46 0.41 0.43 0.58 0.69 0.77 0.90 1.08 1.22 1.33 1.56 1.68 1.77 1.82 1.82 1.77 1.71 1.61 1.52 1.43 1.30 1.24 1.24 1.22 1.17 1.14 1.10 1.09 1.05 0.99 0.92 0.84 0.75 0.66 0.63
0.45 0.45 0.43 0.34 0.28 0.42 0.37 0.25 0.18 0.19 0.19 0.23 0.31 0.36 0.43 0.41 0.43 0.54 0.67 0.82 0.98 1.10 1.23 1.32 1.50 1.59 1.80 1.93 1.81 1.70 1.59 1.53 1.51 1.45 1.40 1.35 1.37 1.38 1.33 1.26 1.20 1.17 1.11 1.01 0.93 0.89 0.86 0.81 0.76
0.54 0.55 0.46 0.35 0.31 0.44 0.42 0.28 0.19 0.20 0.18 0.20 0.27 0.33 0.38 0.40 0.46 0.54 0.64 0.76 0.86 0.96 1.07 1.18 1.39 1.57 1.72 1.84 1.78 1.65 1.63 1.57 1.53 1.48 1.50 1.54 1.53 1.52 1.45 1.34 1.29 1.24 1.18 1.11 1.02 0.95 0.93 0.87 0.85
0.57 0.50 0.44 0.41 0.42 0.48 0.49 0.38 0.23 0.20 0.17 0.21 0.26 0.33 0.38 0.36 0.40 0.46 0.54 0.67 0.77 0.87 0.95 1.10 1.34 1.54 1.72 1.86 1.98 1.92 1.93 1.90 1.79 1.65 1.54 1.52 1.53 1.47 1.41 1.30 1.25 1.27 1.26 1.19 1.10 1.02 0.96 0.90 0.79
0.60 0.36 0.37 0.45 0.68 0.75 0.61 0.63 0.29 0.23 0.19 0.22 0.25 0.27 0.32 0.34 0.39 0.46 0.50 0.58 0.68 0.78 0.88 1.02 1.34 1.59 1.73 1.84 1.91 1.92 1.86 1.82 1.71 1.60 1.54 1.47 1.42 1.39 1.34 1.34 1.29 1.22 1.20 1.14 1.08 1.04 0.99 0.94 0.88
0.53 0.37 0.41 0.55 0.78 0.88 0.63 0.69 0.36 0.23 0.25 0.25 0.26 0.25 0.24 0.27 0.32 0.40 0.47 0.55 0.67 0.79 0.84 0.95 1.17 1.44 1.65 1.81 1.83 1.88 1.84 1.74 1.72 1.73 1.68 1.65 1.57 1.46 1.41 1.36 1.36 1.31 1.23 1.15 1.12 1.11 1.08 1.03 0.96
0.60 0.68 0.75 0.85 1.23 1.43 0.58 0.54 0.38 0.28 0.35 0.32 0.29 0.27 0.23 0.25 0.28 0.36 0.46 0.54 0.66 0.89 0.93 0.97 1.07 1.27 1.53 1.71 1.74 1.73 1.74 1.71 1.69 1.73 1.73 1.70 1.59 1.47 1.36 1.33 1.31 1.28 1.21 1.12 1.09 1.10 1.13 1.11 1.03
1.00 1.46 2.16 2.27 2.21 1.29 0.33 0.37 0.40 0.29 0.29 0.34 0.34 0.27 0.22 0.25 0.29 0.33 0.43 0.55 0.62 0.81 0.93 0.99 1.07 1.14 1.32 1.56 1.67 1.58 1.63 1.60 1.54 1.56 1.55 1.53 1.50 1.43 1.34 1.24 1.17 1.12 1.10 1.09 1.07 1.08 1.07 1.07 1.10
1.09 1.35 1.72 1.60 1.09 0.52 0.25 0.29 0.31 0.25 0.25 0.26 0.30 0.28 0.24 0.24 0.28 0.33 0.37 0.51 0.63 0.71 0.82 0.93 1.04 1.11 1.20 1.32 1.50 1.53 1.60 1.57 1.49 1.45 1.44 1.40 1.34 1.30 1.29 1.27 1.20 1.07 1.00 1.03 1.07 1.07 1.05 1.05 1.09
0.90 1.04 0.92 1.13 0.78 0.53 0.39 0.26 0.23 0.19 0.20 0.20 0.25 0.28 0.29 0.29 0.31 0.36 0.40 0.49 0.60 0.65 0.73 0.86 1.00 1.13 1.15 1.17 1.33 1.42 1.49 1.51 1.43 1.37 1.34 1.34 1.30 1.29 1.31 1.29 1.28 1.21 1.12 1.04 1.03 1.04 1.03 1.08 1.08
0.70 0.82 1.09 1.56 1.30 0.71 0.37 0.25 0.31 0.27 0.25 0.23 0.26 0.30 0.32 0.34 0.34 0.39 0.45 0.49 0.56 0.60 0.67 0.79 0.88 1.07 1.23 1.20 1.23 1.35 1.38 1.44 1.45 1.36 1.30 1.21 1.17 1.22 1.31 1.36 1.31 1.33 1.31 1.22 1.12 1.06 1.03 1.08 1.10
0.71 0.98 1.26 1.39 1.16 0.84 0.49 0.37 0.38 0.33 0.31 0.32 0.32 0.38 0.41 0.41 0.39 0.41 0.50 0.56 0.58 0.60 0.65 0.78 0.84 0.95 1.18 1.27 1.24 1.27 1.34 1.37 1.44 1.41 1.30 1.18 1.11 1.11 1.19 1.29 1.31 1.32 1.35 1.32 1.26 1.17 1.13 1.12 1.12
0.61 0.78 0.98 1.32 1.08 0.70 0.57 0.40 0.30 0.27 0.27 0.29 0.33 0.39 0.47 0.48 0.50 0.51 0.59 0.62 0.62 0.65 0.69 0.78 0.81 0.86 1.02 1.20 1.29 1.27 1.29 1.37 1.39 1.33 1.27 1.24 1.18 1.13 1.14 1.26 1.38 1.37 1.35 1.33 1.32 1.28 1.28 1.31 1.27